Time,TemperatureF,DewpointF,PressureIn,WindDirection,WindDirectionDegrees,WindSpeedMPH,WindSpeedGustMPH,Humidity,HourlyPrecipIn,Conditions,Clouds,dailyrainin,SoftwareType,DateUTC
2013-01-24 00:00:00,47.4,39.9,30.22,ENE,60,0.0,0.0,75,0.00,,---,0.00,VWS V13.01,2013-01-24 06:00:00,
2013-01-24 00:05:00,47.3,39.8,30.22,ENE,61,0.0,0.0,75,0.00,,---,0.00,VWS V13.01,2013-01-24 06:05:00,
2013-01-24 00:10:00,47.2,39.7,30.21,ENE,61,0.0,0.0,75,0.00,,---,0.00,VWS V13.01,2013-01-24 06:10:00,
2013-01-24 00:15:00,47.0,39.5,30.22,ENE,60,0.0,0.0,75,0.00,,---,0.00,VWS V13.01,2013-01-24 06:15:00,
2013-01-24 00:20:00,46.9,39.7,30.21,ENE,61,0.0,0.0,76,0.00,,---,0.00,VWS V13.01,2013-01-24 06:20:00,
2013-01-24 00:25:00,46.7,39.9,30.22,ENE,61,0.0,0.0,77,0.00,,---,0.00,VWS V13.01,2013-01-24 06:25:00,
2013-01-24 00:30:00,46.6,39.8,30.22,ENE,60,0.0,0.0,77,0.00,,---,0.00,VWS V13.01,2013-01-24 06:30:00,
2013-01-24 00:35:00,46.5,40.0,30.22,ENE,61,0.0,0.0,78,0.00,,---,0.00,VWS V13.01,2013-01-24 06:35:00,
2013-01-24 00:40:00,46.4,39.9,30.22,ENE,61,0.0,0.0,78,0.00,,---,0.00,VWS V13.01,2013-01-24 06:40:00,
2013-01-24 00:45:00,46.2,39.7,30.23,ENE,60,0.0,0.0,78,0.00,,---,0.00,VWS V13.01,2013-01-24 06:45:00,
2013-01-24 00:50:00,46.1,39.6,30.23,ENE,61,0.0,0.0,78,0.00,,---,0.00,VWS V13.01,2013-01-24 06:50:00,
2013-01-24 00:55:00,46.1,40.0,30.23,ENE,60,5.0,5.0,79,0.00,,---,0.00,VWS V13.01,2013-01-24 06:55:00,
2013-01-24 01:01:00,46.2,40.4,30.24,NE,42,4.0,7.0,80,0.00,,---,0.00,VWS V13.01,2013-01-24 07:01:00,
2013-01-24 01:06:00,46.2,40.4,30.24,NE,42,3.0,4.0,80,0.00,,---,0.00,VWS V13.01,2013-01-24 07:06:00,
2013-01-24 01:11:00,46.2,40.7,30.24,NE,42,3.0,4.0,81,0.00,,---,0.00,VWS V13.01,2013-01-24 07:11:00,
2013-01-24 01:16:00,46.4,41.2,30.23,NE,34,4.0,7.0,82,0.00,,---,0.00,VWS V13.01,2013-01-24 07:16:00,
2013-01-24 01:21:00,46.9,41.7,30.23,NE,44,6.0,9.0,82,0.00,,---,0.00,VWS V13.01,2013-01-24 07:21:00,
2013-01-24 01:26:00,47.6,42.4,30.23,NE,39,5.0,10.0,82,0.00,,---,0.00,VWS V13.01,2013-01-24 07:26:00,
2013-01-24 01:31:00,48.0,42.5,30.23,NE,41,5.0,10.0,81,0.00,,---,0.00,VWS V13.01,2013-01-24 07:31:00,
2013-01-24 01:36:00,48.2,42.3,30.23,NE,43,3.0,9.0,80,0.00,,---,0.00,VWS V13.01,2013-01-24 07:36:00,
2013-01-24 01:41:00,48.3,42.1,30.22,NE,53,10.0,10.0,79,0.00,,---,0.00,VWS V13.01,2013-01-24 07:41:00,
2013-01-24 01:46:00,48.3,41.8,30.23,NE,36,6.0,10.0,78,0.00,,---,0.00,VWS V13.01,2013-01-24 07:46:00,
2013-01-24 01:51:00,48.3,41.8,30.22,NE,55,3.0,10.0,78,0.00,,---,0.00,VWS V13.01,2013-01-24 07:51:00,
2013-01-24 01:56:00,48.3,41.8,30.23,NE,46,3.0,10.0,78,0.00,,---,0.00,VWS V13.01,2013-01-24 07:56:00,
2013-01-24 02:01:00,48.4,41.9,30.24,NE,42,3.0,10.0,78,0.00,,---,0.00,VWS V13.01,2013-01-24 08:01:00,
2013-01-24 02:06:00,48.4,41.9,30.24,NE,44,3.0,5.0,78,0.00,,---,0.00,VWS V13.01,2013-01-24 08:06:00,
2013-01-24 02:11:00,48.4,41.5,30.23,ENE,64,4.0,7.0,77,0.00,,---,0.00,VWS V13.01,2013-01-24 08:11:00,
2013-01-24 02:16:00,48.3,41.4,30.24,NE,44,1.0,7.0,77,0.00,,---,0.00,VWS V13.01,2013-01-24 08:16:00,
2013-01-24 02:21:00,48.3,41.4,30.24,NE,44,2.0,7.0,77,0.00,,---,0.00,VWS V13.01,2013-01-24 08:21:00,
2013-01-24 02:27:00,48.2,41.3,30.24,NE,45,2.0,7.0,77,0.00,,---,0.00,VWS V13.01,2013-01-24 08:27:00,
2013-01-24 02:32:00,48.1,41.2,30.25,NE,52,4.0,7.0,77,0.00,,---,0.00,VWS V13.01,2013-01-24 08:32:00,
2013-01-24 02:37:00,47.9,40.7,30.25,NE,50,5.0,7.0,76,0.00,,---,0.00,VWS V13.01,2013-01-24 08:37:00,
2013-01-24 02:42:00,47.9,40.7,30.25,NE,51,3.0,7.0,76,0.00,,---,0.00,VWS V13.01,2013-01-24 08:42:00,
2013-01-24 02:47:00,47.8,40.3,30.25,NE,46,3.0,7.0,75,0.00,,---,0.00,VWS V13.01,2013-01-24 08:47:00,
2013-01-24 02:52:00,47.7,40.2,30.25,NE,43,4.0,9.0,75,0.00,,---,0.00,VWS V13.01,2013-01-24 08:52:00,
2013-01-24 02:57:00,47.6,40.1,30.26,NE,38,4.0,9.0,75,0.00,,---,0.00,VWS V13.01,2013-01-24 08:57:00,
2013-01-24 03:02:00,47.5,40.0,30.26,NE,44,5.0,9.0,75,0.00,,---,0.00,VWS V13.01,2013-01-24 09:02:00,
2013-01-24 03:07:00,47.5,40.0,30.26,NE,40,2.0,5.0,75,0.00,,---,0.00,VWS V13.01,2013-01-24 09:07:00,
2013-01-24 03:12:00,47.4,39.9,30.26,NE,44,0.0,6.0,75,0.00,,---,0.00,VWS V13.01,2013-01-24 09:12:00,
2013-01-24 03:17:00,47.4,39.9,30.26,NE,44,2.0,7.0,75,0.00,,---,0.00,VWS V13.01,2013-01-24 09:17:00,
2013-01-24 03:22:00,47.5,39.6,30.25,NE,45,0.0,7.0,74,0.00,,---,0.00,VWS V13.01,2013-01-24 09:22:00,
2013-01-24 03:28:00,47.5,40.0,30.25,NE,45,0.0,7.0,75,0.00,,---,0.00,VWS V13.01,2013-01-24 09:28:00,
2013-01-24 03:33:00,47.6,40.1,30.25,NE,45,1.0,7.0,75,0.00,,---,0.00,VWS V13.01,2013-01-24 09:33:00,
2013-01-24 03:37:00,47.5,40.0,30.26,NE,45,3.0,3.0,75,0.00,,---,0.00,VWS V13.01,2013-01-24 09:37:00,
2013-01-24 03:42:00,47.5,39.6,30.25,NE,46,2.0,5.0,74,0.00,,---,0.00,VWS V13.01,2013-01-24 09:42:00,
2013-01-24 03:48:00,47.4,39.9,30.25,NE,46,2.0,5.0,75,0.00,,---,0.00,VWS V13.01,2013-01-24 09:48:00,
2013-01-24 03:53:00,47.4,39.9,30.25,NE,46,2.0,5.0,75,0.00,,---,0.00,VWS V13.01,2013-01-24 09:53:00,
2013-01-24 03:58:00,47.4,39.9,30.26,NE,46,0.0,5.0,75,0.00,,---,0.00,VWS V13.01,2013-01-24 09:58:00,
2013-01-24 04:03:00,47.3,39.8,30.26,NE,45,0.0,5.0,75,0.00,,---,0.00,VWS V13.01,2013-01-24 10:03:00,
2013-01-24 04:08:00,47.3,39.8,30.26,SE,130,6.0,6.0,75,0.00,,---,0.00,VWS V13.01,2013-01-24 10:08:00,
2013-01-24 04:13:00,47.1,39.9,30.27,East,95,3.0,6.0,76,0.00,,---,0.00,VWS V13.01,2013-01-24 10:13:00,
2013-01-24 04:18:00,47.0,39.8,30.26,East,96,1.0,6.0,76,0.00,,---,0.00,VWS V13.01,2013-01-24 10:18:00,
2013-01-24 04:23:00,46.7,39.5,30.27,East,96,2.0,6.0,76,0.00,,---,0.00,VWS V13.01,2013-01-24 10:23:00,
2013-01-24 04:28:00,46.6,39.1,30.27,East,96,0.0,6.0,75,0.00,,---,0.00,VWS V13.01,2013-01-24 10:28:00,
2013-01-24 04:33:00,46.3,39.2,30.27,East,96,2.0,6.0,76,0.00,,---,0.00,VWS V13.01,2013-01-24 10:33:00,
2013-01-24 04:38:00,46.1,39.0,30.27,East,96,0.0,3.0,76,0.00,,---,0.00,VWS V13.01,2013-01-24 10:38:00,
2013-01-24 04:43:00,45.9,38.8,30.27,East,96,0.0,4.0,76,0.00,,---,0.00,VWS V13.01,2013-01-24 10:43:00,
2013-01-24 04:48:00,45.7,38.6,30.27,SE,130,0.0,5.0,76,0.00,,---,0.00,VWS V13.01,2013-01-24 10:48:00,
2013-01-24 04:53:00,45.5,38.4,30.27,East,90,2.0,5.0,76,0.00,,---,0.00,VWS V13.01,2013-01-24 10:53:00,
2013-01-24 04:58:00,45.3,37.9,30.27,East,88,0.0,5.0,75,0.00,,---,0.00,VWS V13.01,2013-01-24 10:58:00,
2013-01-24 05:03:00,45.1,38.0,30.28,East,88,1.0,5.0,76,0.00,,---,0.00,VWS V13.01,2013-01-24 11:03:00,
2013-01-24 05:08:00,45.0,37.6,30.28,East,88,3.0,3.0,75,0.00,,---,0.00,VWS V13.01,2013-01-24 11:08:00,
2013-01-24 05:13:00,45.0,37.6,30.28,East,88,1.0,3.0,75,0.00,,---,0.00,VWS V13.01,2013-01-24 11:13:00,
2013-01-24 05:18:00,45.0,37.6,30.29,East,88,0.0,5.0,75,0.00,,---,0.00,VWS V13.01,2013-01-24 11:18:00,
2013-01-24 05:23:00,44.9,37.5,30.29,South,169,3.0,5.0,75,0.00,,---,0.00,VWS V13.01,2013-01-24 11:23:00,
2013-01-24 05:28:00,44.8,36.3,30.28,ENE,64,1.0,7.0,72,0.00,,---,0.00,VWS V13.01,2013-01-24 11:28:00,
2013-01-24 05:34:00,44.7,35.5,30.29,WSW,248,1.0,9.0,70,0.00,,---,0.00,VWS V13.01,2013-01-24 11:34:00,
2013-01-24 05:39:00,44.8,35.6,30.29,SW,217,0.0,4.0,70,0.00,,---,0.00,VWS V13.01,2013-01-24 11:39:00,
2013-01-24 05:44:00,44.8,36.0,30.29,South,171,0.0,4.0,71,0.00,,---,0.00,VWS V13.01,2013-01-24 11:44:00,
2013-01-24 05:49:00,44.8,36.0,30.29,South,171,1.0,4.0,71,0.00,,---,0.00,VWS V13.01,2013-01-24 11:49:00,
2013-01-24 05:54:00,44.7,34.8,30.30,East,80,7.0,9.0,68,0.00,,---,0.00,VWS V13.01,2013-01-24 11:54:00,
2013-01-24 05:59:00,44.6,34.0,30.30,NNE,13,2.0,9.0,66,0.00,,---,0.00,VWS V13.01,2013-01-24 11:59:00,
2013-01-24 06:04:00,44.6,32.8,30.31,East,91,7.0,9.0,63,0.00,,---,0.00,VWS V13.01,2013-01-24 12:04:00,
2013-01-24 06:09:00,44.6,32.4,30.31,NE,51,5.0,11.0,62,0.00,,---,0.00,VWS V13.01,2013-01-24 12:09:00,
2013-01-24 06:14:00,44.5,31.9,30.31,East,79,5.0,11.0,61,0.00,,---,0.00,VWS V13.01,2013-01-24 12:14:00,
2013-01-24 06:19:00,44.5,31.9,30.31,ENE,73,4.0,11.0,61,0.00,,---,0.00,VWS V13.01,2013-01-24 12:19:00,
2013-01-24 06:24:00,44.3,31.3,30.32,ESE,114,7.0,13.0,60,0.00,,---,0.00,VWS V13.01,2013-01-24 12:24:00,
2013-01-24 06:29:00,44.2,30.4,30.32,ESE,105,6.0,14.0,58,0.00,,---,0.00,VWS V13.01,2013-01-24 12:29:00,
2013-01-24 06:34:00,44.1,30.3,30.32,SE,133,7.0,14.0,58,0.00,,---,0.00,VWS V13.01,2013-01-24 12:34:00,
2013-01-24 06:39:00,43.9,30.1,30.32,East,101,5.0,14.0,58,0.00,,---,0.00,VWS V13.01,2013-01-24 12:39:00,
2013-01-24 06:44:00,43.8,30.0,30.32,East,96,12.0,15.0,58,0.00,,---,0.00,VWS V13.01,2013-01-24 12:44:00,
2013-01-24 06:49:00,43.7,29.9,30.33,East,86,5.0,15.0,58,0.00,,---,0.00,VWS V13.01,2013-01-24 12:49:00,
2013-01-24 06:54:00,43.6,29.8,30.33,SE,144,3.0,15.0,58,0.00,,---,0.00,VWS V13.01,2013-01-24 12:54:00,
2013-01-24 06:59:00,43.5,29.7,30.33,SE,128,0.0,15.0,58,0.00,,---,0.00,VWS V13.01,2013-01-24 12:59:00,
2013-01-24 07:04:00,43.4,29.6,30.33,ESE,109,7.0,15.0,58,0.00,,---,0.00,VWS V13.01,2013-01-24 13:04:00,
2013-01-24 07:09:00,43.3,29.5,30.34,ENE,59,5.0,11.0,58,0.00,,---,0.00,VWS V13.01,2013-01-24 13:09:00,
2013-01-24 07:15:00,43.2,29.4,30.33,ESE,107,6.0,11.0,58,0.00,,---,0.00,VWS V13.01,2013-01-24 13:15:00,
2013-01-24 07:20:00,43.2,29.9,30.34,East,91,0.0,11.0,59,0.00,,---,0.00,VWS V13.01,2013-01-24 13:20:00,
2013-01-24 07:25:00,43.1,29.3,30.33,NE,49,6.0,13.0,58,0.00,,---,0.00,VWS V13.01,2013-01-24 13:25:00,
2013-01-24 07:30:00,43.0,28.8,30.33,SE,127,0.0,13.0,57,0.00,,---,0.00,VWS V13.01,2013-01-24 13:30:00,
2013-01-24 07:35:00,42.9,28.3,30.33,East,98,2.0,13.0,56,0.00,,---,0.00,VWS V13.01,2013-01-24 13:35:00,
2013-01-24 07:40:00,42.8,28.2,30.33,ENE,63,9.0,11.0,56,0.00,,---,0.00,VWS V13.01,2013-01-24 13:40:00,
2013-01-24 07:45:00,42.7,27.7,30.34,ENE,59,2.0,11.0,55,0.00,,---,0.00,VWS V13.01,2013-01-24 13:45:00,
2013-01-24 07:50:00,42.5,27.0,30.34,SE,143,4.0,11.0,54,0.00,,---,0.00,VWS V13.01,2013-01-24 13:50:00,
2013-01-24 07:55:00,42.4,26.5,30.34,ENE,67,3.0,13.0,53,0.00,,---,0.00,VWS V13.01,2013-01-24 13:55:00,
2013-01-24 08:00:00,42.2,26.3,30.35,East,98,5.0,13.0,53,0.00,,---,0.00,VWS V13.01,2013-01-24 14:00:00,
2013-01-24 08:05:00,42.1,26.2,30.35,ENE,60,4.0,13.0,53,0.00,,---,0.00,VWS V13.01,2013-01-24 14:05:00,
2013-01-24 08:10:00,42.0,26.6,30.35,East,86,2.0,9.0,54,0.00,,---,0.00,VWS V13.01,2013-01-24 14:10:00,
2013-01-24 08:15:00,41.9,26.0,30.35,NE,36,1.0,9.0,53,0.00,,---,0.00,VWS V13.01,2013-01-24 14:15:00,
2013-01-24 08:20:00,41.8,25.9,30.35,ENE,77,4.0,12.0,53,0.00,,---,0.00,VWS V13.01,2013-01-24 14:20:00,
2013-01-24 08:25:00,41.8,25.0,30.36,East,96,5.0,15.0,51,0.00,,---,0.00,VWS V13.01,2013-01-24 14:25:00,
2013-01-24 08:30:00,41.7,24.5,30.36,ENE,76,3.0,21.0,50,0.00,,---,0.00,VWS V13.01,2013-01-24 14:30:00,
2013-01-24 08:35:00,41.6,24.4,30.37,ENE,67,3.0,21.0,50,0.00,,---,0.00,VWS V13.01,2013-01-24 14:35:00,
2013-01-24 08:40:00,41.5,24.3,30.36,NE,55,2.0,13.0,50,0.00,,---,0.00,VWS V13.01,2013-01-24 14:40:00,
2013-01-24 08:45:00,41.4,24.2,30.36,NE,51,4.0,13.0,50,0.00,,---,0.00,VWS V13.01,2013-01-24 14:45:00,
2013-01-24 08:50:00,41.4,24.6,30.37,East,95,7.0,16.0,51,0.00,,---,0.00,VWS V13.01,2013-01-24 14:50:00,
2013-01-24 08:55:00,41.3,24.5,30.36,ENE,74,1.0,16.0,51,0.00,,---,0.00,VWS V13.01,2013-01-24 14:55:00,
2013-01-24 09:00:00,41.3,24.5,30.36,SSE,167,6.0,16.0,51,0.00,,---,0.00,VWS V13.01,2013-01-24 15:00:00,
2013-01-24 09:05:00,41.2,24.5,30.37,ESE,110,5.0,5.0,51,0.00,,---,0.00,VWS V13.01,2013-01-24 15:05:00,
2013-01-24 09:10:00,41.1,24.4,30.37,East,94,2.0,13.0,51,0.00,,---,0.00,VWS V13.01,2013-01-24 15:10:00,
2013-01-24 09:15:00,41.1,24.8,30.37,ENE,58,4.0,14.0,52,0.00,,---,0.00,VWS V13.01,2013-01-24 15:15:00,
2013-01-24 09:21:00,41.1,24.8,30.37,ESE,119,6.0,14.0,52,0.00,,---,0.00,VWS V13.01,2013-01-24 15:21:00,
2013-01-24 09:26:00,41.1,25.3,30.37,East,88,9.0,14.0,53,0.00,,---,0.00,VWS V13.01,2013-01-24 15:26:00,
2013-01-24 09:31:00,41.1,24.8,30.37,ESE,114,6.0,14.0,52,0.00,,---,0.00,VWS V13.01,2013-01-24 15:31:00,
2013-01-24 09:36:00,41.2,25.4,30.37,East,91,1.0,3.0,53,0.00,,---,0.00,VWS V13.01,2013-01-24 15:36:00,
2013-01-24 09:41:00,41.4,25.6,30.37,ENE,75,4.0,7.0,53,0.00,,---,0.00,VWS V13.01,2013-01-24 15:41:00,
2013-01-24 09:46:00,41.5,25.2,30.37,NE,48,3.0,10.0,52,0.00,,---,0.00,VWS V13.01,2013-01-24 15:46:00,
2013-01-24 09:51:00,41.5,24.7,30.37,ENE,78,6.0,12.0,51,0.00,,---,0.00,VWS V13.01,2013-01-24 15:51:00,
2013-01-24 09:56:00,41.4,24.6,30.38,East,88,5.0,13.0,51,0.00,,---,0.00,VWS V13.01,2013-01-24 15:56:00,
2013-01-24 10:01:00,41.4,24.6,30.38,East,92,3.0,14.0,51,0.00,,---,0.00,VWS V13.01,2013-01-24 16:01:00,
2013-01-24 10:06:00,41.3,25.0,30.39,East,91,5.0,10.0,52,0.00,,---,0.00,VWS V13.01,2013-01-24 16:06:00,
2013-01-24 10:11:00,41.2,24.9,30.39,ESE,113,4.0,11.0,52,0.00,,---,0.00,VWS V13.01,2013-01-24 16:11:00,
2013-01-24 10:16:00,41.1,24.8,30.39,East,97,5.0,14.0,52,0.00,,---,0.00,VWS V13.01,2013-01-24 16:16:00,
2013-01-24 10:21:00,41.1,24.8,30.39,SE,128,4.0,15.0,52,0.00,,---,0.00,VWS V13.01,2013-01-24 16:21:00,
2013-01-24 10:26:00,41.1,25.3,30.39,East,101,9.0,15.0,53,0.00,,---,0.00,VWS V13.01,2013-01-24 16:26:00,
2013-01-24 10:31:00,41.1,25.3,30.40,NNE,33,1.0,15.0,53,0.00,,---,0.00,VWS V13.01,2013-01-24 16:31:00,
2013-01-24 10:36:00,41.1,25.3,30.39,NE,49,5.0,13.0,53,0.00,,---,0.00,VWS V13.01,2013-01-24 16:36:00,
2013-01-24 10:41:00,41.3,25.5,30.39,ESE,110,5.0,13.0,53,0.00,,---,0.00,VWS V13.01,2013-01-24 16:41:00,
2013-01-24 10:46:00,41.4,25.6,30.39,ESE,107,6.0,15.0,53,0.00,,---,0.00,VWS V13.01,2013-01-24 16:46:00,
2013-01-24 10:51:00,41.5,26.1,30.39,SE,145,10.0,16.0,54,0.00,,---,0.00,VWS V13.01,2013-01-24 16:51:00,
2013-01-24 10:57:00,41.7,25.9,30.38,East,94,4.0,16.0,53,0.00,,---,0.00,VWS V13.01,2013-01-24 16:57:00,
2013-01-24 11:02:00,41.8,25.9,30.38,ESE,115,6.0,16.0,53,0.00,,---,0.00,VWS V13.01,2013-01-24 17:02:00,
2013-01-24 11:07:00,41.8,25.9,30.38,East,90,8.0,12.0,53,0.00,,---,0.00,VWS V13.01,2013-01-24 17:07:00,
2013-01-24 11:12:00,42.0,25.7,30.38,ENE,71,5.0,14.0,52,0.00,,---,0.00,VWS V13.01,2013-01-24 17:12:00,
2013-01-24 11:17:00,42.0,24.7,30.38,ESE,121,5.0,14.0,50,0.00,,---,0.00,VWS V13.01,2013-01-24 17:17:00,
2013-01-24 11:22:00,41.8,24.5,30.38,East,92,4.0,15.0,50,0.00,,---,0.00,VWS V13.01,2013-01-24 17:22:00,
2013-01-24 11:27:00,41.6,23.9,30.37,NE,52,2.0,15.0,49,0.00,,---,0.00,VWS V13.01,2013-01-24 17:27:00,
2013-01-24 11:32:00,41.6,23.9,30.37,East,96,3.0,15.0,49,0.00,,---,0.00,VWS V13.01,2013-01-24 17:32:00,
2013-01-24 11:37:00,41.9,24.6,30.37,ENE,67,3.0,10.0,50,0.00,,---,0.00,VWS V13.01,2013-01-24 17:37:00,
2013-01-24 11:42:00,42.3,25.0,30.37,ENE,65,5.0,10.0,50,0.00,,---,0.00,VWS V13.01,2013-01-24 17:42:00,
2013-01-24 11:47:00,42.4,25.6,30.36,ENE,65,2.0,10.0,51,0.00,,---,0.00,VWS V13.01,2013-01-24 17:47:00,
2013-01-24 11:52:00,42.5,25.7,30.36,SE,141,1.0,10.0,51,0.00,,---,0.00,VWS V13.01,2013-01-24 17:52:00,
2013-01-24 11:57:00,42.3,25.9,30.35,ESE,119,2.0,12.0,52,0.00,,---,0.00,VWS V13.01,2013-01-24 17:57:00,
2013-01-24 12:02:00,41.8,25.9,30.35,SW,219,3.0,16.0,53,0.00,,---,0.00,VWS V13.01,2013-01-24 18:02:00,
2013-01-24 12:07:00,41.4,25.1,30.35,SSE,157,3.0,12.0,52,0.00,,---,0.00,VWS V13.01,2013-01-24 18:07:00,
2013-01-24 12:12:00,41.1,24.4,30.35,SE,129,8.0,13.0,51,0.00,,---,0.00,VWS V13.01,2013-01-24 18:12:00,
2013-01-24 12:17:00,41.1,23.9,30.34,SSE,153,10.0,15.0,50,0.00,,---,0.00,VWS V13.01,2013-01-24 18:17:00,
2013-01-24 12:22:00,41.1,23.4,30.34,SE,125,10.0,15.0,49,0.00,,---,0.00,VWS V13.01,2013-01-24 18:22:00,
2013-01-24 12:27:00,41.0,23.3,30.34,SE,136,11.0,15.0,49,0.00,,---,0.00,VWS V13.01,2013-01-24 18:27:00,
2013-01-24 12:32:00,40.8,23.1,30.34,ESE,113,5.0,15.0,49,0.00,,---,0.00,VWS V13.01,2013-01-24 18:32:00,
2013-01-24 12:37:00,40.8,22.6,30.34,ESE,119,2.0,14.0,48,0.00,,---,0.00,VWS V13.01,2013-01-24 18:37:00,
2013-01-24 12:42:00,40.6,22.5,30.34,East,80,6.0,14.0,48,0.00,,---,0.00,VWS V13.01,2013-01-24 18:42:00,
2013-01-24 12:47:00,40.4,22.3,30.33,SE,128,4.0,15.0,48,0.00,,---,0.00,VWS V13.01,2013-01-24 18:47:00,
2013-01-24 12:52:00,40.1,22.0,30.33,East,100,2.0,15.0,48,0.00,,---,0.00,VWS V13.01,2013-01-24 18:52:00,
2013-01-24 12:57:00,40.0,22.4,30.34,ESE,123,0.0,15.0,49,0.00,,---,0.00,VWS V13.01,2013-01-24 18:57:00,
2013-01-24 13:02:00,39.8,21.2,30.34,SE,140,5.0,15.0,47,0.00,,---,0.00,VWS V13.01,2013-01-24 19:02:00,
2013-01-24 13:08:00,39.4,20.9,30.33,SSE,161,4.0,9.0,47,0.00,,---,0.00,VWS V13.01,2013-01-24 19:08:00,
2013-01-24 13:13:00,39.2,21.2,30.33,SSW,205,4.0,13.0,48,0.00,,---,0.00,VWS V13.01,2013-01-24 19:13:00,
2013-01-24 13:18:00,39.3,21.8,30.33,ESE,115,10.0,14.0,49,0.00,,---,0.00,VWS V13.01,2013-01-24 19:18:00,
2013-01-24 13:23:00,39.1,21.6,30.32,South,187,0.0,14.0,49,0.00,,---,0.00,VWS V13.01,2013-01-24 19:23:00,
2013-01-24 13:28:00,39.1,22.0,30.32,SSE,152,0.0,14.0,50,0.00,,---,0.00,VWS V13.01,2013-01-24 19:28:00,
2013-01-24 13:33:00,39.1,22.0,30.32,East,82,1.0,14.0,50,0.00,,---,0.00,VWS V13.01,2013-01-24 19:33:00,
2013-01-24 13:38:00,39.3,22.7,30.31,East,81,3.0,11.0,51,0.00,,---,0.00,VWS V13.01,2013-01-24 19:38:00,
2013-01-24 13:43:00,39.0,22.4,30.31,East,94,3.0,16.0,51,0.00,,---,0.00,VWS V13.01,2013-01-24 19:43:00,
2013-01-24 13:48:00,39.0,22.9,30.31,SSE,155,12.0,16.0,52,0.00,,---,0.00,VWS V13.01,2013-01-24 19:48:00,
2013-01-24 13:53:00,38.9,22.8,30.31,SE,133,0.0,16.0,52,0.00,,---,0.00,VWS V13.01,2013-01-24 19:53:00,
2013-01-24 13:58:00,39.0,22.4,30.31,East,84,3.0,16.0,51,0.00,,---,0.00,VWS V13.01,2013-01-24 19:58:00,
2013-01-24 14:03:00,38.9,22.3,30.31,ENE,64,5.0,16.0,51,0.00,,---,0.00,VWS V13.01,2013-01-24 20:03:00,
2013-01-24 14:08:00,38.8,22.7,30.30,ESE,102,2.0,9.0,52,0.00,,---,0.00,VWS V13.01,2013-01-24 20:08:00,
2013-01-24 14:13:00,38.7,22.6,30.31,ESE,105,6.0,11.0,52,0.00,,---,0.00,VWS V13.01,2013-01-24 20:13:00,
2013-01-24 14:19:00,38.5,22.4,30.30,ESE,115,7.0,12.0,52,0.00,,---,0.00,VWS V13.01,2013-01-24 20:19:00,
2013-01-24 14:24:00,38.3,22.2,30.31,SSE,150,2.0,13.0,52,0.00,,---,0.00,VWS V13.01,2013-01-24 20:24:00,
2013-01-24 14:29:00,38.2,22.1,30.31,East,79,12.0,14.0,52,0.00,,---,0.00,VWS V13.01,2013-01-24 20:29:00,
2013-01-24 14:34:00,38.1,21.6,30.31,East,95,8.0,14.0,51,0.00,,---,0.00,VWS V13.01,2013-01-24 20:34:00,
2013-01-24 14:39:00,37.9,21.9,30.31,SE,133,5.0,11.0,52,0.00,,---,0.00,VWS V13.01,2013-01-24 20:39:00,
2013-01-24 14:44:00,37.8,21.8,30.30,South,181,6.0,11.0,52,0.00,,---,0.00,VWS V13.01,2013-01-24 20:44:00,
2013-01-24 14:49:00,37.7,21.7,30.30,South,172,5.0,14.0,52,0.00,,---,0.00,VWS V13.01,2013-01-24 20:49:00,
2013-01-24 14:54:00,37.6,21.6,30.30,ENE,74,3.0,14.0,52,0.00,,---,0.00,VWS V13.01,2013-01-24 20:54:00,
2013-01-24 14:59:00,37.7,21.7,30.29,South,171,5.0,14.0,52,0.00,,---,0.00,VWS V13.01,2013-01-24 20:59:00,
2013-01-24 15:04:00,37.7,21.7,30.29,ESE,121,0.0,14.0,52,0.00,,---,0.00,VWS V13.01,2013-01-24 21:04:00,
2013-01-24 15:09:00,37.7,21.7,30.30,ENE,59,4.0,11.0,52,0.00,,---,0.00,VWS V13.01,2013-01-24 21:09:00,
2013-01-24 15:14:00,37.7,21.7,30.29,SE,140,9.0,13.0,52,0.00,,---,0.00,VWS V13.01,2013-01-24 21:14:00,
2013-01-24 15:19:00,37.5,21.5,30.29,SE,132,7.0,14.0,52,0.00,,---,0.00,VWS V13.01,2013-01-24 21:19:00,
2013-01-24 15:24:00,37.3,21.3,30.29,ENE,76,4.0,14.0,52,0.00,,---,0.00,VWS V13.01,2013-01-24 21:24:00,
2013-01-24 15:29:00,37.2,21.7,30.29,East,100,7.0,14.0,53,0.00,,---,0.00,VWS V13.01,2013-01-24 21:29:00,
2013-01-24 15:35:00,37.1,21.6,30.29,SE,142,5.0,14.0,53,0.00,,---,0.00,VWS V13.01,2013-01-24 21:35:00,
2013-01-24 15:40:00,37.1,22.0,30.29,SSE,168,5.0,11.0,54,0.00,,---,0.00,VWS V13.01,2013-01-24 21:40:00,
2013-01-24 15:45:00,37.0,21.5,30.29,East,91,2.0,13.0,53,0.00,,---,0.00,VWS V13.01,2013-01-24 21:45:00,
2013-01-24 15:50:00,36.7,21.2,30.28,SE,128,9.0,15.0,53,0.00,,---,0.00,VWS V13.01,2013-01-24 21:50:00,
2013-01-24 15:55:00,36.7,21.6,30.29,SSW,200,1.0,15.0,54,0.00,,---,0.00,VWS V13.01,2013-01-24 21:55:00,
2013-01-24 16:00:00,36.6,21.5,30.29,ESE,104,1.0,15.0,54,0.00,,---,0.00,VWS V13.01,2013-01-24 22:00:00,
2013-01-24 16:05:00,36.4,21.4,30.29,ESE,119,3.0,15.0,54,0.00,,---,0.00,VWS V13.01,2013-01-24 22:05:00,
2013-01-24 16:10:00,36.2,21.2,30.30,SSE,148,3.0,12.0,54,0.00,,---,0.00,VWS V13.01,2013-01-24 22:10:00,
2013-01-24 16:15:00,36.1,21.5,30.30,ENE,63,5.0,12.0,55,0.00,,---,0.00,VWS V13.01,2013-01-24 22:15:00,
2013-01-24 16:20:00,36.0,21.8,30.30,ENE,77,2.0,12.0,56,0.00,,---,0.00,VWS V13.01,2013-01-24 22:20:00,
2013-01-24 16:25:00,35.8,21.6,30.30,ENE,72,2.0,12.0,56,0.00,,---,0.00,VWS V13.01,2013-01-24 22:25:00,
2013-01-24 16:30:00,35.7,21.6,30.30,ENE,71,8.0,12.0,56,0.00,,---,0.00,VWS V13.01,2013-01-24 22:30:00,
2013-01-24 16:35:00,35.5,21.4,30.29,East,84,4.0,12.0,56,0.00,,---,0.00,VWS V13.01,2013-01-24 22:35:00,
2013-01-24 16:40:00,35.5,21.4,30.29,SSE,148,3.0,11.0,56,0.00,,---,0.00,VWS V13.01,2013-01-24 22:40:00,
2013-01-24 16:45:00,35.3,21.2,30.29,SE,129,0.0,11.0,56,0.00,,---,0.00,VWS V13.01,2013-01-24 22:45:00,
2013-01-24 16:50:00,35.2,21.1,30.29,SE,138,5.0,11.0,56,0.00,,---,0.00,VWS V13.01,2013-01-24 22:50:00,
2013-01-24 16:55:00,35.0,20.9,30.29,ESE,103,4.0,12.0,56,0.00,,---,0.00,VWS V13.01,2013-01-24 22:55:00,
2013-01-24 17:01:00,34.8,20.7,30.29,SE,140,2.0,12.0,56,0.00,,---,0.00,VWS V13.01,2013-01-24 23:01:00,
2013-01-24 17:05:00,34.8,20.7,30.29,ESE,115,4.0,7.0,56,0.00,,---,0.00,VWS V13.01,2013-01-24 23:05:00,
2013-01-24 17:11:00,34.5,20.4,30.29,SE,145,3.0,11.0,56,0.00,,---,0.00,VWS V13.01,2013-01-24 23:11:00,
2013-01-24 17:16:00,34.4,20.8,30.29,ENE,59,5.0,11.0,57,0.00,,---,0.00,VWS V13.01,2013-01-24 23:16:00,
2013-01-24 17:21:00,34.4,20.3,30.29,ESE,111,3.0,11.0,56,0.00,,---,0.00,VWS V13.01,2013-01-24 23:21:00,
2013-01-24 17:26:00,34.3,20.7,30.29,SSE,161,2.0,11.0,57,0.00,,---,0.00,VWS V13.01,2013-01-24 23:26:00,
2013-01-24 17:31:00,34.2,20.6,30.29,East,96,4.0,11.0,57,0.00,,---,0.00,VWS V13.01,2013-01-24 23:31:00,
2013-01-24 17:36:00,34.1,20.9,30.30,SE,134,3.0,4.0,58,0.00,,---,0.00,VWS V13.01,2013-01-24 23:36:00,
2013-01-24 17:41:00,34.1,20.5,30.30,ENE,77,1.0,5.0,57,0.00,,---,0.00,VWS V13.01,2013-01-24 23:41:00,
2013-01-24 17:46:00,33.9,20.3,30.30,ESE,111,0.0,8.0,57,0.00,,---,0.00,VWS V13.01,2013-01-24 23:46:00,
2013-01-24 17:51:00,33.9,20.7,30.30,ESE,113,6.0,8.0,58,0.00,,---,0.00,VWS V13.01,2013-01-24 23:51:00,
2013-01-24 17:56:00,33.9,20.7,30.30,SE,134,0.0,8.0,58,0.00,,---,0.00,VWS V13.01,2013-01-24 23:56:00,
2013-01-24 18:01:00,33.7,20.5,30.30,ESE,119,7.0,14.0,58,0.00,,---,0.00,VWS V13.01,2013-01-25 00:01:00,
2013-01-24 18:06:00,33.5,20.7,30.30,SSE,164,3.0,6.0,59,0.00,,---,0.00,VWS V13.01,2013-01-25 00:06:00,
2013-01-24 18:11:00,33.5,21.1,30.30,NE,40,3.0,8.0,60,0.00,,---,0.00,VWS V13.01,2013-01-25 00:11:00,
2013-01-24 18:16:00,33.4,21.4,30.30,ENE,74,0.0,11.0,61,0.00,,---,0.00,VWS V13.01,2013-01-25 00:16:00,
2013-01-24 18:21:00,33.3,21.3,30.29,SW,214,3.0,11.0,61,0.00,,---,0.00,VWS V13.01,2013-01-25 00:21:00,
2013-01-24 18:26:00,33.2,21.6,30.28,South,182,6.0,11.0,62,0.00,,---,0.00,VWS V13.01,2013-01-25 00:26:00,
2013-01-24 18:32:00,33.0,21.8,30.29,South,186,0.0,13.0,63,0.00,,---,0.00,VWS V13.01,2013-01-25 00:32:00,
2013-01-24 18:37:00,33.0,21.8,30.28,SSE,152,3.0,13.0,63,0.00,,---,0.00,VWS V13.01,2013-01-25 00:37:00,
2013-01-24 18:42:00,32.9,21.7,30.28,SSE,151,9.0,13.0,63,0.00,,---,0.00,VWS V13.01,2013-01-25 00:42:00,
2013-01-24 18:47:00,32.8,22.0,30.29,ESE,103,2.0,13.0,64,0.00,,---,0.00,VWS V13.01,2013-01-25 00:47:00,
2013-01-24 18:52:00,32.7,21.9,30.29,ESE,121,9.0,14.0,64,0.00,,---,0.00,VWS V13.01,2013-01-25 00:52:00,
2013-01-24 18:57:00,32.6,22.1,30.29,SSE,150,2.0,14.0,65,0.00,,---,0.00,VWS V13.01,2013-01-25 00:57:00,
2013-01-24 19:02:00,32.5,22.1,30.29,ESE,117,2.0,14.0,65,0.00,,---,0.00,VWS V13.01,2013-01-25 01:02:00,
2013-01-24 19:07:00,32.4,22.3,30.30,South,169,3.0,13.0,66,0.00,,---,0.00,VWS V13.01,2013-01-25 01:07:00,
2013-01-24 19:12:00,32.4,22.3,30.29,ESE,104,3.0,13.0,66,0.00,,---,0.00,VWS V13.01,2013-01-25 01:12:00,
2013-01-24 19:17:00,32.4,22.3,30.29,East,91,6.0,16.0,66,0.00,,---,0.00,VWS V13.01,2013-01-25 01:17:00,
2013-01-24 19:22:00,32.3,22.2,30.29,ESE,121,5.0,16.0,66,0.00,,---,0.00,VWS V13.01,2013-01-25 01:22:00,
2013-01-24 19:27:00,32.3,22.6,30.29,SE,141,1.0,16.0,67,0.00,,---,0.00,VWS V13.01,2013-01-25 01:27:00,
2013-01-24 19:32:00,32.3,22.6,30.28,SSE,150,2.0,16.0,67,0.00,,---,0.00,VWS V13.01,2013-01-25 01:32:00,
2013-01-24 19:37:00,32.3,22.6,30.26,SSE,158,1.0,12.0,67,0.00,,---,0.00,VWS V13.01,2013-01-25 01:37:00,
2013-01-24 19:42:00,32.2,22.5,30.26,SE,137,5.0,12.0,67,0.00,,---,0.00,VWS V13.01,2013-01-25 01:42:00,
2013-01-24 19:47:00,32.1,22.8,30.26,SE,125,3.0,14.0,68,0.00,,---,0.00,VWS V13.01,2013-01-25 01:47:00,
2013-01-24 19:52:00,32.1,22.8,30.26,SSE,157,0.0,14.0,68,0.00,,---,0.00,VWS V13.01,2013-01-25 01:52:00,
2013-01-24 19:57:00,32.0,23.0,30.26,SSE,149,4.0,14.0,69,0.00,,---,0.00,VWS V13.01,2013-01-25 01:57:00,
2013-01-24 20:03:00,31.9,22.9,30.25,SE,134,4.0,14.0,69,0.00,,---,0.00,VWS V13.01,2013-01-25 02:03:00,
2013-01-24 20:08:00,31.9,22.9,30.26,SE,140,5.0,8.0,69,0.00,,---,0.00,VWS V13.01,2013-01-25 02:08:00,
2013-01-24 20:13:00,31.8,23.1,30.26,SSE,147,2.0,10.0,70,0.00,,---,0.00,VWS V13.01,2013-01-25 02:13:00,
2013-01-24 20:18:00,31.8,23.1,30.26,ESE,107,3.0,10.0,70,0.00,,---,0.00,VWS V13.01,2013-01-25 02:18:00,
2013-01-24 20:23:00,31.8,23.1,30.26,SE,132,14.0,14.0,70,0.00,,---,0.00,VWS V13.01,2013-01-25 02:23:00,
2013-01-24 20:28:00,31.7,23.0,30.26,ESE,116,10.0,14.0,70,0.00,,---,0.00,VWS V13.01,2013-01-25 02:28:00,
2013-01-24 20:33:00,31.6,23.0,30.25,SSE,148,1.0,14.0,70,0.00,,---,0.00,VWS V13.01,2013-01-25 02:33:00,
2013-01-24 20:39:00,31.5,22.9,30.26,North,5,2.0,3.0,70,0.00,,---,0.00,VWS V13.01,2013-01-25 02:39:00,
2013-01-24 20:44:00,31.5,22.9,30.26,East,92,3.0,9.0,70,0.00,,---,0.00,VWS V13.01,2013-01-25 02:44:00,
2013-01-24 20:49:00,31.5,23.2,30.26,SE,134,2.0,9.0,71,0.00,,---,0.00,VWS V13.01,2013-01-25 02:49:00,
2013-01-24 20:54:00,31.4,23.1,30.26,SSE,159,3.0,10.0,71,0.00,,---,0.00,VWS V13.01,2013-01-25 02:54:00,
2013-01-24 20:59:00,31.4,22.8,30.25,SE,124,2.0,13.0,70,0.00,,---,0.00,VWS V13.01,2013-01-25 02:59:00,
2013-01-24 21:04:00,31.3,22.7,30.25,ESE,117,2.0,13.0,70,0.00,,---,0.00,VWS V13.01,2013-01-25 03:04:00,
2013-01-24 21:09:00,31.2,22.9,30.25,SSE,153,0.0,11.0,71,0.00,,---,0.00,VWS V13.01,2013-01-25 03:09:00,
2013-01-24 21:14:00,31.2,22.9,30.26,South,171,0.0,11.0,71,0.00,,---,0.00,VWS V13.01,2013-01-25 03:14:00,
2013-01-24 21:19:00,31.2,22.9,30.26,SSE,156,4.0,11.0,71,0.00,,---,0.00,VWS V13.01,2013-01-25 03:19:00,
2013-01-24 21:25:00,31.2,22.9,30.27,SE,134,2.0,11.0,71,0.00,,---,0.00,VWS V13.01,2013-01-25 03:25:00,
2013-01-24 21:29:00,31.2,23.2,30.27,SSE,150,6.0,11.0,72,0.00,,---,0.00,VWS V13.01,2013-01-25 03:29:00,
2013-01-24 21:35:00,31.2,23.2,30.26,East,84,3.0,11.0,72,0.00,,---,0.00,VWS V13.01,2013-01-25 03:35:00,
2013-01-24 21:40:00,31.3,23.3,30.27,SE,133,1.0,6.0,72,0.00,,---,0.00,VWS V13.01,2013-01-25 03:40:00,
2013-01-24 21:45:00,31.3,23.3,30.26,SSE,153,3.0,7.0,72,0.00,,---,0.00,VWS V13.01,2013-01-25 03:45:00,
2013-01-24 21:50:00,31.2,23.2,30.26,East,93,7.0,10.0,72,0.00,,---,0.00,VWS V13.01,2013-01-25 03:50:00,
2013-01-24 21:55:00,31.2,23.2,30.26,South,189,3.0,10.0,72,0.00,,---,0.00,VWS V13.01,2013-01-25 03:55:00,
2013-01-24 22:00:00,31.2,23.2,30.25,SE,125,1.0,12.0,72,0.00,,---,0.00,VWS V13.01,2013-01-25 04:00:00,
2013-01-24 22:05:00,31.1,23.1,30.25,SE,140,2.0,12.0,72,0.00,,---,0.00,VWS V13.01,2013-01-25 04:05:00,
2013-01-24 22:10:00,31.1,23.1,30.26,ENE,68,5.0,6.0,72,0.00,,---,0.00,VWS V13.01,2013-01-25 04:10:00,
2013-01-24 22:15:00,31.1,23.1,30.26,NE,54,1.0,7.0,72,0.00,,---,0.00,VWS V13.01,2013-01-25 04:15:00,
2013-01-24 22:21:00,31.1,23.1,30.26,ENE,62,0.0,7.0,72,0.00,,---,0.00,VWS V13.01,2013-01-25 04:21:00,
2013-01-24 22:26:00,31.1,23.1,30.26,SSE,147,2.0,7.0,72,0.00,,---,0.00,VWS V13.01,2013-01-25 04:26:00,
2013-01-24 22:31:00,31.1,23.1,30.26,East,98,2.0,7.0,72,0.00,,---,0.00,VWS V13.01,2013-01-25 04:31:00,
2013-01-24 22:36:00,31.1,23.5,30.27,ENE,74,0.0,0.0,73,0.00,,---,0.00,VWS V13.01,2013-01-25 04:36:00,
2013-01-24 22:41:00,31.1,23.5,30.26,SE,142,4.0,7.0,73,0.00,,---,0.00,VWS V13.01,2013-01-25 04:41:00,
2013-01-24 22:46:00,31.1,23.5,30.25,SE,134,2.0,8.0,73,0.00,,---,0.00,VWS V13.01,2013-01-25 04:46:00,
2013-01-24 22:51:00,31.1,23.5,30.25,ESE,122,3.0,8.0,73,0.00,,---,0.00,VWS V13.01,2013-01-25 04:51:00,
2013-01-24 22:56:00,31.1,23.5,30.24,SSE,163,2.0,10.0,73,0.00,,---,0.00,VWS V13.01,2013-01-25 04:56:00,
2013-01-24 23:00:00,31.0,23.4,30.24,East,101,0.0,10.0,73,0.00,,---,0.00,VWS V13.01,2013-01-25 05:00:00,
2013-01-24 23:01:00,31.0,23.4,30.25,East,99,1.0,10.0,73,0.00,,---,0.00,VWS V13.01,2013-01-25 05:01:00,
2013-01-24 23:02:00,31.0,23.4,30.25,East,99,3.0,10.0,73,0.00,,---,0.00,VWS V13.01,2013-01-25 05:02:00,
2013-01-24 23:03:00,31.0,23.4,30.24,SSE,155,3.0,10.0,73,0.00,,---,0.00,VWS V13.01,2013-01-25 05:03:00,
2013-01-24 23:08:00,31.0,23.0,30.24,ESE,122,4.0,6.0,72,0.00,,---,0.00,VWS V13.01,2013-01-25 05:08:00,
2013-01-24 23:13:00,31.0,23.4,30.23,ENE,76,5.0,7.0,73,0.00,,---,0.00,VWS V13.01,2013-01-25 05:13:00,
2013-01-24 23:18:00,30.9,23.3,30.23,SE,137,3.0,10.0,73,0.00,,---,0.00,VWS V13.01,2013-01-25 05:18:00,
2013-01-24 23:23:00,30.9,23.3,30.22,SE,138,3.0,11.0,73,0.00,,---,0.00,VWS V13.01,2013-01-25 05:23:00,
2013-01-24 23:28:00,30.8,23.2,30.22,SE,138,2.0,11.0,73,0.00,,---,0.00,VWS V13.01,2013-01-25 05:28:00,
2013-01-24 23:33:00,30.8,23.2,30.21,SSE,157,2.0,11.0,73,0.00,,---,0.00,VWS V13.01,2013-01-25 05:33:00,
2013-01-24 23:38:00,30.8,23.2,30.21,SE,136,1.0,7.0,73,0.00,,---,0.00,VWS V13.01,2013-01-25 05:38:00,
2013-01-24 23:43:00,30.7,23.1,30.21,SE,132,0.0,7.0,73,0.00,,---,0.00,VWS V13.01,2013-01-25 05:43:00,
2013-01-24 23:48:00,30.7,23.1,30.21,ESE,109,0.0,9.0,73,0.00,,---,0.00,VWS V13.01,2013-01-25 05:48:00,
2013-01-24 23:53:00,30.8,23.5,30.21,ESE,122,4.0,9.0,74,0.00,,---,0.00,VWS V13.01,2013-01-25 05:53:00,
2013-01-24 23:58:00,30.7,23.1,30.21,ESE,110,5.0,9.0,73,0.00,,---,0.00,VWS V13.01,2013-01-25 05:58:00,